AAL66 KJAX-KMIA

Flight info

Callsign AAL66
Flight time 0h 54m
Altitude 28000
Route EXBOX2 EXBOX PRMUS DEBRL CSTAL2
Aircraft B738/M-SDE2E3FGHIRWXY/LB1

Departure

Time 2026-05-05 19:59
Airport Jacksonville International Airport (KJAX)

Arrival

Time 2026-05-05 20:54
Airport Miami International Airport (KMIA)
Time Latitude Longitude Altitude Speed Heading
2026-05-05 19:07 30.49123 -81.68633 39 ft 0 kts 120°
2026-05-05 19:41 30.49128 -81.68642 39 ft 2 kts 120°
2026-05-05 19:41 30.49136 -81.68659 39 ft 2 kts 122°
2026-05-05 19:41 30.49145 -81.68675 39 ft 2 kts 126°
2026-05-05 19:42 30.49156 -81.68690 35 ft 2 kts 146°
2026-05-05 19:42 30.49171 -81.68695 39 ft 1 kts 184°
2026-05-05 19:42 30.49174 -81.68695 39 ft 0 kts 185°
2026-05-05 19:47 30.49171 -81.68695 39 ft 0 kts 185°
2026-05-05 19:48 30.49169 -81.68696 39 ft 2 kts 187°
2026-05-05 19:48 30.49153 -81.68701 37 ft 3 kts 201°
2026-05-05 19:48 30.49143 -81.68706 39 ft 0 kts 202°
2026-05-05 19:50 30.49133 -81.68711 39 ft 4 kts 204°
2026-05-05 19:50 30.49121 -81.68717 39 ft 4 kts 205°
2026-05-05 19:50 30.49111 -81.68723 39 ft 0 kts 205°
2026-05-05 19:51 30.49110 -81.68723 39 ft 2 kts 205°
2026-05-05 19:52 30.49049 -81.68757 37 ft 15 kts 209°
2026-05-05 19:52 30.49043 -81.68865 35 ft 9 kts 294°
2026-05-05 19:52 30.49058 -81.68901 37 ft 5 kts 295°
2026-05-05 19:52 30.49074 -81.68941 38 ft 7 kts 295°
2026-05-05 19:53 30.49100 -81.69003 38 ft 0 kts 295°
2026-05-05 19:53 30.49106 -81.69019 38 ft 7 kts 290°
2026-05-05 19:53 30.49067 -81.69107 36 ft 19 kts 231°
2026-05-05 19:53 30.48969 -81.69249 36 ft 24 kts 232°
2026-05-05 19:54 30.48919 -81.69385 31 ft 12 kts 300°
2026-05-05 19:54 30.48970 -81.69457 32 ft 11 kts 311°
2026-05-05 19:54 30.49022 -81.69524 34 ft 11 kts 313°
2026-05-05 19:54 30.49070 -81.69593 35 ft 11 kts 309°
2026-05-05 19:55 30.49118 -81.69658 36 ft 10 kts 310°
2026-05-05 19:55 30.49168 -81.69727 33 ft 13 kts 310°
2026-05-05 19:55 30.49234 -81.69814 34 ft 16 kts 311°
2026-05-05 19:55 30.49307 -81.69912 34 ft 11 kts 309°
2026-05-05 19:56 30.49306 -81.69979 31 ft 9 kts 228°
2026-05-05 19:56 30.49283 -81.70002 31 ft 1 kts 219°
2026-05-05 19:56 30.49271 -81.70013 32 ft 8 kts 219°
2026-05-05 19:56 30.49205 -81.70057 34 ft 11 kts 172°
2026-05-05 19:57 30.49168 -81.70013 34 ft 7 kts 127°
2026-05-05 19:57 30.49164 -81.70008 34 ft 0 kts 130°
2026-05-05 19:58 30.49098 -81.69919 34 ft 52 kts 130°
2026-05-05 19:59 30.48666 -81.69336 29 ft 137 kts 131°
2026-05-05 19:59 30.47897 -81.68308 154 ft 194 kts 131°
2026-05-05 19:59 30.46942 -81.67098 798 ft 211 kts 132°
2026-05-05 19:59 30.45986 -81.65807 1654 ft 210 kts 128°
2026-05-05 20:00 30.45064 -81.64451 2297 ft 221 kts 130°
2026-05-05 20:00 30.44058 -81.63086 2974 ft 224 kts 133°
2026-05-05 20:00 30.42981 -81.61706 3474 ft 240 kts 133°
2026-05-05 20:00 30.41805 -81.60191 3159 ft 275 kts 133°
2026-05-05 20:01 30.40540 -81.58570 3048 ft 272 kts 133°
2026-05-05 20:01 30.39285 -81.56919 2909 ft 266 kts 131°
2026-05-05 20:01 30.38096 -81.55313 2908 ft 260 kts 131°
2026-05-05 20:01 30.36927 -81.53724 2924 ft 259 kts 131°
2026-05-05 20:02 30.35753 -81.52125 2929 ft 262 kts 131°
2026-05-05 20:02 30.34448 -81.50628 2922 ft 265 kts 139°
2026-05-05 20:02 30.33053 -81.49248 2910 ft 263 kts 141°
2026-05-05 20:02 30.31655 -81.47880 2919 ft 263 kts 140°
2026-05-05 20:03 30.30269 -81.46501 2922 ft 263 kts 140°
2026-05-05 20:03 30.28896 -81.45109 2918 ft 263 kts 139°
2026-05-05 20:03 30.27527 -81.43704 2922 ft 263 kts 139°
2026-05-05 20:03 30.26176 -81.42303 2927 ft 266 kts 139°
2026-05-05 20:04 30.24791 -81.40858 3255 ft 271 kts 139°
2026-05-05 20:04 30.23402 -81.39403 4382 ft 268 kts 139°
2026-05-05 20:04 30.22013 -81.37945 5447 ft 271 kts 139°
2026-05-05 20:04 30.20614 -81.36474 6413 ft 274 kts 138°
2026-05-05 20:05 30.19192 -81.34978 7336 ft 278 kts 138°
2026-05-05 20:05 30.17750 -81.33460 8250 ft 282 kts 138°
2026-05-05 20:05 30.16291 -81.31923 9145 ft 286 kts 138°
2026-05-05 20:05 30.14811 -81.30365 10028 ft 290 kts 138°
2026-05-05 20:06 30.13280 -81.28754 10547 ft 309 kts 138°
2026-05-05 20:06 30.11619 -81.27007 10756 ft 336 kts 138°
2026-05-05 20:06 30.09827 -81.25122 11067 ft 357 kts 138°
2026-05-05 20:06 30.07970 -81.23169 11732 ft 365 kts 138°
2026-05-05 20:07 30.06080 -81.21186 12552 ft 368 kts 139°
2026-05-05 20:07 30.03981 -81.19493 13329 ft 371 kts 154°
2026-05-05 20:07 30.01530 -81.18431 14100 ft 373 kts 167°
2026-05-05 20:07 29.98951 -81.18037 14833 ft 376 kts 176°
2026-05-05 20:08 29.96325 -81.17819 15545 ft 381 kts 176°
2026-05-05 20:08 29.93672 -81.17583 16237 ft 385 kts 176°
2026-05-05 20:08 29.90989 -81.17304 16915 ft 389 kts 173°
2026-05-05 20:08 29.88370 -81.16622 17547 ft 394 kts 162°
2026-05-05 20:09 29.85807 -81.15361 18199 ft 398 kts 152°
2026-05-05 20:09 29.83402 -81.13744 18810 ft 402 kts 154°
2026-05-05 20:09 29.80783 -81.12614 19401 ft 405 kts 166°
2026-05-05 20:09 29.77988 -81.12162 19988 ft 407 kts 179°
2026-05-05 20:10 29.75149 -81.12193 20577 ft 410 kts 182°
2026-05-05 20:10 29.72290 -81.12298 21114 ft 413 kts 182°
2026-05-05 20:10 29.69403 -81.12414 21637 ft 417 kts 182°
2026-05-05 20:10 29.66486 -81.12521 22161 ft 420 kts 182°
2026-05-05 20:11 29.63555 -81.12612 22675 ft 424 kts 182°
2026-05-05 20:11 29.60597 -81.12691 23162 ft 427 kts 182°
2026-05-05 20:11 29.57618 -81.12763 23637 ft 430 kts 182°
2026-05-05 20:11 29.54616 -81.12832 24090 ft 433 kts 182°
2026-05-05 20:12 29.51593 -81.12900 24529 ft 436 kts 182°
2026-05-05 20:12 29.48552 -81.12969 24955 ft 439 kts 182°
2026-05-05 20:12 29.45484 -81.13039 25360 ft 442 kts 182°
2026-05-05 20:12 29.42406 -81.13109 25748 ft 445 kts 182°
2026-05-05 20:13 29.39296 -81.13180 26127 ft 448 kts 182°
2026-05-05 20:13 29.36173 -81.13252 26494 ft 450 kts 182°
2026-05-05 20:13 29.33032 -81.13323 26849 ft 453 kts 181°
2026-05-05 20:13 29.29868 -81.13152 27128 ft 458 kts 173°
2026-05-05 20:14 29.26734 -81.12415 27314 ft 464 kts 163°
2026-05-05 20:14 29.23651 -81.11254 27569 ft 468 kts 162°
2026-05-05 20:14 29.20567 -81.10034 27894 ft 470 kts 161°
2026-05-05 20:14 29.17467 -81.08796 27991 ft 473 kts 161°
2026-05-05 20:15 29.14360 -81.07564 27996 ft 472 kts 161°
2026-05-05 20:15 29.11265 -81.06351 27992 ft 468 kts 162°
2026-05-05 20:15 29.08188 -81.05157 27994 ft 466 kts 162°
2026-05-05 20:16 29.02029 -81.02794 27999 ft 467 kts 162°
2026-05-05 20:16 28.98942 -81.01616 28000 ft 468 kts 162°
2026-05-05 20:16 28.95858 -81.00440 28009 ft 468 kts 162°
2026-05-05 20:17 28.89666 -80.98081 28001 ft 469 kts 162°
2026-05-05 20:17 28.86568 -80.96901 27998 ft 469 kts 162°
2026-05-05 20:17 28.83474 -80.95723 28000 ft 469 kts 162°
2026-05-05 20:18 28.77274 -80.93364 27996 ft 469 kts 162°
2026-05-05 20:18 28.74176 -80.92187 27996 ft 469 kts 162°
2026-05-05 20:18 28.71107 -80.91021 27999 ft 469 kts 162°
2026-05-05 20:18 28.68013 -80.89846 27998 ft 469 kts 162°
2026-05-05 20:19 28.65926 -80.89054 27998 ft 469 kts 162°
2026-05-05 20:19 28.58976 -80.86419 28003 ft 468 kts 162°
2026-05-05 20:20 28.52897 -80.84118 28004 ft 468 kts 162°
2026-05-05 20:20 28.46720 -80.81782 28003 ft 468 kts 162°
2026-05-05 20:21 28.40973 -80.79612 27999 ft 467 kts 162°
2026-05-05 20:21 28.38892 -80.78826 28000 ft 467 kts 162°
2026-05-05 20:21 28.35801 -80.77661 27997 ft 467 kts 162°
2026-05-05 20:21 28.32722 -80.76500 28000 ft 467 kts 162°
2026-05-05 20:22 28.29636 -80.75338 28008 ft 467 kts 162°
2026-05-05 20:22 28.23463 -80.73014 28002 ft 467 kts 162°
2026-05-05 20:23 28.17284 -80.70691 28004 ft 467 kts 162°
2026-05-05 20:23 28.14203 -80.69534 27998 ft 468 kts 162°
2026-05-05 20:23 28.11114 -80.68375 28002 ft 467 kts 162°
2026-05-05 20:23 28.08026 -80.67216 27999 ft 467 kts 162°
2026-05-05 20:24 28.04935 -80.66057 28003 ft 467 kts 162°
2026-05-05 20:24 28.01852 -80.64902 28000 ft 467 kts 162°
2026-05-05 20:24 27.98767 -80.63747 28001 ft 467 kts 162°
2026-05-05 20:25 27.92587 -80.61435 28005 ft 467 kts 162°
2026-05-05 20:25 27.89500 -80.60281 27999 ft 467 kts 162°
2026-05-05 20:25 27.86413 -80.59128 28004 ft 467 kts 162°
2026-05-05 20:25 27.83323 -80.57975 27995 ft 468 kts 162°
2026-05-05 20:26 27.80235 -80.56823 27996 ft 468 kts 162°
2026-05-05 20:26 27.74054 -80.54518 28000 ft 468 kts 162°
2026-05-05 20:27 27.67873 -80.52217 27998 ft 468 kts 162°
2026-05-05 20:27 27.61696 -80.49920 27999 ft 468 kts 162°
2026-05-05 20:28 27.55516 -80.47625 27996 ft 468 kts 162°
2026-05-05 20:28 27.52422 -80.46477 27996 ft 468 kts 162°
2026-05-05 20:28 27.49335 -80.45332 28002 ft 468 kts 162°
2026-05-05 20:29 27.43147 -80.43039 27999 ft 468 kts 162°
2026-05-05 20:29 27.36968 -80.40752 27996 ft 468 kts 162°
2026-05-05 20:29 27.33877 -80.39609 28000 ft 468 kts 162°
2026-05-05 20:30 27.30788 -80.38467 28000 ft 468 kts 162°
2026-05-05 20:30 27.27692 -80.37324 28000 ft 468 kts 162°
2026-05-05 20:30 27.24602 -80.36183 28004 ft 468 kts 162°
2026-05-05 20:30 27.21513 -80.35043 28000 ft 468 kts 162°
2026-05-05 20:31 27.18421 -80.33903 28002 ft 468 kts 162°
2026-05-05 20:31 27.12238 -80.31625 28008 ft 468 kts 162°
2026-05-05 20:32 27.06051 -80.29349 27996 ft 468 kts 162°
2026-05-05 20:32 27.02957 -80.28212 27653 ft 471 kts 162°
2026-05-05 20:32 26.99864 -80.27076 26771 ft 472 kts 162°
2026-05-05 20:32 26.96707 -80.25916 25773 ft 472 kts 162°
2026-05-05 20:33 26.93625 -80.24785 24792 ft 472 kts 162°
2026-05-05 20:33 26.90493 -80.23636 24037 ft 465 kts 162°
2026-05-05 20:33 26.87437 -80.22515 23259 ft 459 kts 162°
2026-05-05 20:33 26.84421 -80.21410 22512 ft 454 kts 162°
2026-05-05 20:34 26.81436 -80.20317 21760 ft 448 kts 162°
2026-05-05 20:34 26.78488 -80.19238 21013 ft 443 kts 162°
2026-05-05 20:34 26.75578 -80.18173 20272 ft 438 kts 162°
2026-05-05 20:34 26.72695 -80.17119 19530 ft 433 kts 162°
2026-05-05 20:35 26.69847 -80.16079 18799 ft 429 kts 162°
2026-05-05 20:35 26.67028 -80.15049 18074 ft 424 kts 162°
2026-05-05 20:35 26.64240 -80.14032 17353 ft 420 kts 162°
2026-05-05 20:35 26.61476 -80.13024 16636 ft 415 kts 162°
2026-05-05 20:36 26.58897 -80.12083 15965 ft 411 kts 162°
2026-05-05 20:36 26.56223 -80.11108 15263 ft 407 kts 162°
2026-05-05 20:36 26.53540 -80.10131 14549 ft 404 kts 162°
2026-05-05 20:36 26.50885 -80.09164 13842 ft 400 kts 162°
2026-05-05 20:37 26.48266 -80.08211 13519 ft 387 kts 162°
2026-05-05 20:37 26.45758 -80.07310 13338 ft 371 kts 164°
2026-05-05 20:37 26.43291 -80.06687 13177 ft 357 kts 170°
2026-05-05 20:37 26.40891 -80.06226 13024 ft 344 kts 171°
2026-05-05 20:38 26.38573 -80.05782 12880 ft 332 kts 169°
2026-05-05 20:38 26.36354 -80.05213 12738 ft 322 kts 167°
2026-05-05 20:38 26.34217 -80.04609 12617 ft 312 kts 166°
2026-05-05 20:38 26.32144 -80.04021 12484 ft 303 kts 167°
2026-05-05 20:39 26.30131 -80.03458 12361 ft 295 kts 167°
2026-05-05 20:39 26.28148 -80.02912 12246 ft 292 kts 167°
2026-05-05 20:39 26.26164 -80.02380 12136 ft 294 kts 170°
2026-05-05 20:39 26.24125 -80.02401 12016 ft 296 kts 191°
2026-05-05 20:40 26.22100 -80.02862 11911 ft 298 kts 193°
2026-05-05 20:40 26.20080 -80.03349 11772 ft 296 kts 193°
2026-05-05 20:40 26.18066 -80.03831 11647 ft 295 kts 193°
2026-05-05 20:40 26.16063 -80.04303 11523 ft 294 kts 193°
2026-05-05 20:41 26.14060 -80.04768 11399 ft 293 kts 193°
2026-05-05 20:41 26.12068 -80.05226 11277 ft 292 kts 192°
2026-05-05 20:41 26.10076 -80.05681 11157 ft 292 kts 192°
2026-05-05 20:41 26.08089 -80.06135 11034 ft 291 kts 192°
2026-05-05 20:42 26.06109 -80.06598 10891 ft 292 kts 193°
2026-05-05 20:42 26.04127 -80.07108 10730 ft 292 kts 194°
2026-05-05 20:42 26.02146 -80.07631 10565 ft 293 kts 194°
2026-05-05 20:42 26.00188 -80.08147 10406 ft 293 kts 194°
2026-05-05 20:43 25.98203 -80.08666 10239 ft 293 kts 194°
2026-05-05 20:43 25.96221 -80.09182 10075 ft 290 kts 194°
2026-05-05 20:43 25.94260 -80.09691 9899 ft 282 kts 194°
2026-05-05 20:43 25.92376 -80.10192 9739 ft 275 kts 198°
2026-05-05 20:44 25.90655 -80.10984 9593 ft 269 kts 207°
2026-05-05 20:44 25.89006 -80.11954 9454 ft 269 kts 210°
2026-05-05 20:44 25.87343 -80.12964 9307 ft 270 kts 209°
2026-05-05 20:44 25.85710 -80.13946 9157 ft 270 kts 209°
2026-05-05 20:45 25.82379 -80.15911 8854 ft 272 kts 208°
2026-05-05 20:45 25.80702 -80.16888 8703 ft 272 kts 208°
2026-05-05 20:45 25.79019 -80.17863 8547 ft 273 kts 208°
2026-05-05 20:46 25.77336 -80.18835 8395 ft 273 kts 208°
2026-05-05 20:46 25.75647 -80.19809 8240 ft 274 kts 208°
2026-05-05 20:46 25.73964 -80.20789 8082 ft 272 kts 212°
2026-05-05 20:46 25.72623 -80.22208 7872 ft 268 kts 239°
2026-05-05 20:47 25.71935 -80.24104 7616 ft 265 kts 256°
2026-05-05 20:47 25.71525 -80.26084 7348 ft 263 kts 258°
2026-05-05 20:47 25.71174 -80.28065 7067 ft 261 kts 263°
2026-05-05 20:47 25.71047 -80.30064 6800 ft 259 kts 268°
2026-05-05 20:48 25.70984 -80.32059 6536 ft 258 kts 268°
2026-05-05 20:48 25.70922 -80.34042 6262 ft 257 kts 268°
2026-05-05 20:48 25.70847 -80.36016 5993 ft 256 kts 267°
2026-05-05 20:48 25.70762 -80.37983 5723 ft 255 kts 267°
2026-05-05 20:49 25.70672 -80.39939 5464 ft 254 kts 267°
2026-05-05 20:49 25.70580 -80.41894 5165 ft 254 kts 267°
2026-05-05 20:49 25.70491 -80.43874 4488 ft 261 kts 270°
2026-05-05 20:49 25.70899 -80.45840 3778 ft 268 kts 298°
2026-05-05 20:50 25.72155 -80.47356 3091 ft 273 kts 327°
2026-05-05 20:50 25.73967 -80.47966 2394 ft 278 kts
2026-05-05 20:50 25.75770 -80.47391 2052 ft 269 kts 32°
2026-05-05 20:50 25.77023 -80.45946 1712 ft 262 kts 59°
2026-05-05 20:51 25.77763 -80.44145 1503 ft 249 kts 70°
2026-05-05 20:51 25.78143 -80.42340 1473 ft 230 kts 82°
2026-05-05 20:51 25.78254 -80.40657 1481 ft 208 kts 88°
2026-05-05 20:51 25.78303 -80.39134 1443 ft 191 kts 87°
2026-05-05 20:52 25.78359 -80.37646 1194 ft 192 kts 88°
2026-05-05 20:52 25.78419 -80.36206 949 ft 180 kts 87°
2026-05-05 20:52 25.78471 -80.34885 737 ft 161 kts 87°
2026-05-05 20:52 25.78526 -80.33727 526 ft 142 kts 86°
2026-05-05 20:53 25.78565 -80.32662 325 ft 136 kts 89°
2026-05-05 20:53 25.78596 -80.31608 138 ft 138 kts 87°
2026-05-05 20:53 25.78646 -80.30562 17 ft 126 kts 88°
2026-05-05 20:53 25.78683 -80.29734 17 ft 82 kts 88°
2026-05-05 20:54 25.78702 -80.29365 16 ft 36 kts 83°
2026-05-05 20:54 25.78750 -80.29210 18 ft 15 kts 51°
2026-05-05 20:54 25.78815 -80.29122 18 ft 15 kts 71°
2026-05-05 20:54 25.78827 -80.29012 18 ft 14 kts 79°
2026-05-05 20:55 25.78846 -80.28923 16 ft 7 kts 76°
2026-05-05 20:55 25.78875 -80.28873 15 ft 9 kts 25°
2026-05-05 20:55 25.78960 -80.28873 14 ft 16 kts 356°
2026-05-05 20:55 25.79088 -80.28879 12 ft 21 kts 357°
2026-05-05 20:56 25.79241 -80.28882 13 ft 22 kts 360°
2026-05-05 20:56 25.79382 -80.28888 16 ft 19 kts 357°
2026-05-05 20:56 25.79514 -80.28895 16 ft 19 kts 356°
2026-05-05 20:56 25.79641 -80.28898 19 ft 17 kts 358°
2026-05-05 20:57 25.79757 -80.28906 22 ft 16 kts 356°
2026-05-05 20:57 25.79868 -80.28913 22 ft 16 kts 359°
2026-05-05 20:57 25.79932 -80.28839 22 ft 15 kts 86°
2026-05-05 20:57 25.79937 -80.28723 21 ft 15 kts 86°
2026-05-05 20:58 25.79941 -80.28612 19 ft 15 kts 88°
2026-05-05 20:58 25.79947 -80.28491 17 ft 16 kts 86°
2026-05-05 20:58 25.79900 -80.28418 17 ft 5 kts 138°
2026-05-05 20:58 25.79881 -80.28390 18 ft 5 kts 115°
2026-05-05 20:59 25.79845 -80.28369 19 ft 7 kts 174°
2026-05-05 20:59 25.79829 -80.28368 16 ft 4 kts 177°
2026-05-05 20:59 25.79823 -80.28368 17 ft 0 kts 177°
2026-05-05 20:59 25.79822 -80.28368 17 ft 0 kts 179°